CW2927 Weather Reports


Display with metric or nautical units.
time (UTC)temp
F
wind
direction
speed
MPH
gust
MPH
rain 1hr
in
rain 24hr
in
rain mn
in
humidity
%
barometer
mb
20260904144704 69 282 2.0 3.0 0.00 0.03 0.00 84 1009.7
20260904144204 68 276 3.0 6.0 0.00 0.03 0.00 85 1009.8
20260904142705 68 282 3.0 6.0 0.00 0.03 0.00 86 1009.9
20260904142204 67 295 3.0 7.0 0.00 0.03 0.00 86 1009.9
20260904140704 67 291 3.0 6.0 0.00 0.03 0.00 87 1009.9
20260904140204 67 273 3.0 6.0 0.00 0.03 0.00 87 1009.9
20260904132704 65 266 3.0 3.0 0.00 0.03 0.00 95 1009.7
20260904132204 64 277 1.0 5.0 0.00 0.03 0.00 96 1009.7
20260904130704 64 288 2.0 3.0 0.00 0.03 0.00 97 1009.8
20260904130204 63 290 1.0 3.0 0.00 0.03 0.00 97 1009.8
20260904124704 63 305 3.0 3.0 0.00 0.03 0.00 97 1009.7
20260904124204 63 59 2.0 3.0 0.00 0.03 0.00 97 1009.7
20260904122704 62 66 1.0 2.0 0.00 0.03 0.00 97 1009.7
20260904120704 61 67 0.0 0.0 0.00 0.03 0.00 97 1009.7
20260904120204 61 67 0.0 2.0 0.00 0.03 0.00 96 1009.7
20260904114704 61 67 0.0 0.0 0.00 0.03 0.00 97 1009.7
20260904114204 60 67 0.0 2.0 0.00 0.03 0.00 96 1009.6
20260904112704 60 67 1.0 1.0 0.00 0.03 0.00 96 1009.5
20260904110704 59 67 0.0 2.0 0.00 0.03 0.00 96 1009.2
20260904110204 59 66 1.0 2.0 0.00 0.03 0.00 96 1009.2
20260904104704 59 66 0.0 0.0 0.00 0.03 0.00 96 1009.2
20260904104204 59 66 0.0 0.0 0.00 0.03 0.00 96 1009.1
20260904102704 59 66 0.0 0.0 0.00 0.03 0.00 96 1009.0
20260904102204 59 66 0.0 1.0 0.00 0.03 0.00 96 1009.1
20260904100704 58 66 0.0 0.0 0.00 0.04 0.00 96 1009.0
20260904100203 58 66 0.0 0.0 0.00 0.04 0.00 96 1009.0
20260904094704 58 66 0.0 0.0 0.00 0.04 0.00 96 1008.8
20260904092703 58 66 0.0 0.0 0.00 0.04 0.00 96 1008.7
20260904090704 58 66 0.0 1.0 0.00 0.04 0.00 96 1008.5
20260904084703 58 66 0.0 0.0 0.00 0.04 0.00 96 1008.6
20260904084203 58 66 0.0 0.0 0.00 0.04 0.00 96 1008.6
20260904082703 59 66 0.0 0.0 0.00 0.04 0.00 96 1008.6
20260904082203 59 66 0.0 1.0 0.00 0.05 0.00 96 1008.7
20260904080704 59 66 0.0 0.0 0.00 0.06 0.00 96 1008.7
20260904080203 59 66 1.0 2.0 0.00 0.06 0.00 96 1008.7
20260904074706 59 66 0.0 1.0 0.00 0.06 0.00 96 1008.5
20260904074206 59 66 1.0 2.0 0.00 0.06 0.00 96 1008.5
20260904072205 59 64 0.0 1.0 0.00 0.06 0.00 95 1008.4
20260904070705 60 64 0.0 0.0 0.00 0.06 0.00 96 1008.4
20260904062705 61 64 0.0 2.0 0.00 0.06 0.00 95 1008.5
20260904062206 61 64 1.0 2.0 0.00 0.06 0.00 96 1008.5
20260904060705 61 63 0.0 0.0 0.00 0.06 0.00 95 1008.7
20260904060205 61 63 0.0 1.0 0.00 0.06 0.00 95 1008.7
20260904054205 61 63 0.0 1.0 0.00 0.06 0.00 95 1008.8
20260904052205 61 63 1.0 1.0 0.00 0.06 0.00 95 1008.9
20260904050205 61 63 0.0 1.0 0.00 0.08 0.00 95 1009.0
20260904044705 61 63 0.0 1.0 0.00 0.09 0.00 95 1009.1
20260904042705 61 63 0.0 2.0 0.00 0.10 0.00 95 1009.1
20260904042205 61 63 1.0 3.0 0.00 0.10 0.00 95 1009.1
20260904040205 61 55 0.0 2.0 0.00 0.11 0.00 95 1009.4
20260904034205 62 55 0.0 2.0 0.00 0.11 0.11 94 1009.4
20260904032705 62 55 1.0 2.0 0.00 0.13 0.11 94 1009.4
20260904032205 62 55 1.0 1.0 0.00 0.13 0.11 94 1009.3
20260904030705 62 55 0.0 0.0 0.00 0.15 0.11 94 1009.3
20260904030205 63 55 0.0 2.0 0.00 0.16 0.11 94 1009.3
20260904024705 63 55 0.0 1.0 0.00 0.17 0.11 94 1009.3
20260904024205 63 55 0.0 1.0 0.00 0.18 0.11 93 1009.4
20260904022705 64 55 1.0 1.0 0.00 0.19 0.11 93 1009.5
20260904020705 64 55 1.0 2.0 0.00 0.20 0.11 93 1009.5
20260904014205 65 28 1.0 5.0 0.00 0.22 0.11 94 1009.6
20260904012705 65 47 2.0 3.0 0.00 0.23 0.11 94 1009.5
20260904012205 65 30 2.0 3.0 0.00 0.23 0.11 95 1009.4
20260904010705 66 47 0.0 0.0 0.00 0.23 0.11 94 1008.8
20260904010205 66 47 0.0 2.0 0.00 0.23 0.11 94 1008.7
20260904004705 66 47 1.0 1.0 0.01 0.23 0.11 94 1008.7
20260904004207 66 47 0.0 3.0 0.01 0.23 0.11 94 1008.7
20260904002705 66 45 2.0 3.0 0.01 0.24 0.11 94 1008.6
20260904002205 66 37 3.0 3.0 0.01 0.24 0.11 94 1008.7
20260904000705 66 319 0.0 0.0 0.01 0.24 0.11 93 1008.3
20260904000205 66 319 0.0 1.0 0.01 0.24 0.11 93 1008.3
20260903234705 67 319 0.0 1.0 0.00 0.23 0.10 92 1008.1
20260903234205 67 319 0.0 1.0 0.00 0.23 0.10 92 1008.2
20260903232705 68 319 0.0 0.0 0.00 0.23 0.10 91 1008.0
20260903232205 68 319 0.0 1.0 0.01 0.23 0.10 91 1008.0
20260903230704 68 319 1.0 1.0 0.02 0.23 0.10 90 1008.2
20260903230204 69 319 0.0 1.0 0.02 0.23 0.10 90 1008.3
20260903224204 69 319 0.0 3.0 0.02 0.23 0.10 88 1008.5
20260903222205 70 339 2.0 13.0 0.02 0.22 0.09 85 1008.6
20260903220705 73 191 1.0 3.0 0.00 0.20 0.08 81 1008.2
20260903220204 74 170 2.0 3.0 0.00 0.20 0.08 82 1008.2
20260903214705 74 288 1.0 3.0 0.00 0.20 0.08 82 1008.0
20260903212705 75 258 2.0 3.0 0.00 0.20 0.08 76 1008.0
20260903212204 75 255 2.0 3.0 0.00 0.20 0.08 75 1008.0
20260903210205 76 250 1.0 5.0 0.00 0.20 0.08 75 1007.9
20260903204705 77 233 2.0 5.0 0.00 0.20 0.08 70 1008.0
20260903204205 78 170 1.0 7.0 0.00 0.20 0.08 70 1008.2
20260903200705 78 267 3.0 7.0 0.00 0.20 0.08 69 1008.2
20260903194204 78 271 3.0 7.0 0.00 0.20 0.08 71 1008.3
20260903192705 78 252 5.0 10.0 0.00 0.20 0.08 70 1008.4
20260903192204 78 255 4.0 7.0 0.00 0.20 0.08 71 1008.4
20260903190705 78 255 3.0 8.0 0.00 0.20 0.08 70 1008.4
20260903190205 78 167 1.0 7.0 0.00 0.20 0.08 73 1008.4
20260903184704 78 183 2.0 3.0 0.00 0.20 0.08 70 1008.6
20260903184205 79 195 2.0 7.0 0.00 0.20 0.08 70 1008.6
20260903182704 78 174 2.0 6.0 0.00 0.20 0.08 69 1008.6
20260903182206 78 244 1.0 6.0 0.00 0.20 0.08 70 1008.5
20260903180704 77 232 1.0 3.0 0.00 0.20 0.08 72 1008.8
20260903180205 77 238 1.0 6.0 0.00 0.20 0.08 72 1008.8
20260903174704 77 258 2.0 5.0 0.00 0.20 0.08 73 1008.9
20260903172705 75 211 1.0 3.0 0.00 0.20 0.08 76 1009.1
20260903172205 75 225 2.0 6.0 0.00 0.20 0.08 76 1009.2
20260903170704 76 155 4.0 9.0 0.00 0.20 0.08 76 1009.2
20260903170204 76 156 3.0 6.0 0.00 0.20 0.08 76 1009.2
20260903164705 75 164 3.0 8.0 0.00 0.20 0.08 78 1009.4
20260903164204 75 154 2.0 9.0 0.00 0.20 0.08 80 1009.4
20260903162705 73 167 4.0 7.0 0.00 0.20 0.08 83 1009.6
20260903162204 72 164 5.0 10.0 0.00 0.20 0.08 84 1009.7
20260903160705 72 263 2.0 6.0 0.00 0.20 0.08 84 1009.8
20260903160204 72 167 2.0 8.0 0.00 0.20 0.08 84 1009.8
20260903154704 71 170 4.0 9.0 0.00 0.20 0.08 87 1010.0
20260903152204 69 171 2.0 7.0 0.00 0.20 0.08 90 1010.2
20260903150704 68 188 2.0 6.0 0.00 0.20 0.08 90 1010.3
20260903150204 68 171 2.0 8.0 0.00 0.20 0.08 90 1010.3